Location: Newark
(34.0131°N, 4.3314°W)
Time: 18:51:32
(UTC+00:00)

Explorer 7 - Pass Details

Date: 14 October 2019
Orbit: 485 x 680 km, 50.3° (Epoch: 22 November)

Event Time Altitude Azimuth Distance (km) Brightness Sun altitude
Rises 19:31:52 0° 317° (NW) 2,695 11.1 -22.9°
Reaches altitude 10° 19:34:10 10° 326° (NW) 1,834 10.0 -23.4°
Enters shadow 19:37:01 32° 2° (N) 992 8.1 -24.0°
Maximum altitude 19:38:04 37° 35° (NE) 900 - -24.2°
Drops below altitude 10° 19:42:13 10° 104° (ESE) 1,944 - -25.1°
Sets 19:44:43 0° 112° (ESE) 2,882 - -25.6°
